Date String (YYYY-MM-DD hh:mm:ss) UTC,Instrument flags,Ambient pressure (hPa),Sample flow (lpm),Bypass flow (lpm),Sample temperature (°C),Ambient temperature (°C),ASC tube jacket temperature (°C),LED temperature (°C),Box temperature (°C),Sample RH (%),Span deviation,Mass concentration (μg/m³),Mass concentration (μg/m³),Mass concentration (μg/m³)
DateTimeUTC,F1_M11,P_M11,Q1_M11,Q2_M11,T1_M11,T2_M11,T3_M11,T4_M11,T5_M11,U1_M11,ZSPAN_M11,X0_M11,X2_M11,X1_M11
2023-01-30 04:00:00,,0826.9,4.97,0.00,22.6,22.1,00.0,31.3,24.4,03.9,0000.0,0004.84,0003.34,0003.17
2023-01-30 04:01:00,,0826.9,5.00,0.00,22.6,21.5,00.0,31.3,24.2,03.9,0000.0,0004.79,0003.35,0003.19
2023-01-30 04:02:00,,0826.9,5.00,0.00,22.5,21.1,00.0,31.3,24.1,03.9,0000.0,0004.91,0003.38,0003.20
2023-01-30 04:03:00,,0826.9,5.00,0.00,22.4,20.7,00.0,31.3,24.0,03.9,0000.0,0004.95,0003.42,0003.22
2023-01-30 04:04:00,,0827.2,4.99,0.00,22.4,20.5,00.0,31.3,23.9,03.9,0000.0,0004.99,0003.44,0003.22
2023-01-30 04:05:00,,0827.1,4.98,0.00,22.4,21.2,00.0,31.3,24.1,03.9,0000.0,0004.94,0003.43,0003.22
2023-01-30 04:06:00,,0826.9,4.99,0.00,22.5,22.1,00.0,31.3,24.3,03.9,0000.0,0004.95,0003.43,0003.22
2023-01-30 04:07:00,,0827.1,5.01,0.00,22.6,22.9,00.0,31.3,24.6,03.9,0000.0,0004.92,0003.43,0003.22
2023-01-30 04:08:00,,0826.9,4.99,0.00,22.7,22.9,00.0,31.3,24.6,03.8,0000.0,0004.91,0003.42,0003.21
2023-01-30 04:09:00,,0826.9,5.01,0.00,22.7,22.3,00.0,31.4,24.5,03.8,0000.0,0005.03,0003.44,0003.22
2023-01-30 04:10:00,,0827.4,5.01,0.00,22.6,21.8,00.0,31.4,24.3,03.8,0000.0,0004.79,0003.44,0003.22
2023-01-30 04:11:00,,0827.1,5.01,0.00,22.6,21.3,00.0,31.4,24.2,03.8,0000.0,0004.67,0003.41,0003.21
2023-01-30 04:12:00,,0826.9,4.99,0.00,22.5,21.0,00.0,31.4,24.1,03.9,0000.0,0005.03,0003.40,0003.20
2023-01-30 04:13:00,,0826.9,5.00,0.00,22.4,20.7,00.0,31.4,24.0,03.9,0000.0,0005.48,0003.38,0003.19
2023-01-30 04:14:00,,0827.1,4.99,0.00,22.4,20.7,00.0,31.3,23.9,03.9,0000.0,0005.49,0003.35,0003.19
2023-01-30 04:15:00,,0826.9,5.02,0.00,22.5,21.6,00.0,31.3,24.2,03.9,0000.0,0005.56,0003.35,0003.19
2023-01-30 04:16:00,,0826.9,4.99,0.00,22.6,22.5,00.0,31.3,24.4,03.8,0000.0,0005.69,0003.39,0003.20
2023-01-30 04:17:00,,0826.9,4.99,0.00,22.6,22.6,00.0,31.3,24.5,03.8,0000.0,0005.72,0003.40,0003.21
2023-01-30 04:18:00,,0827.0,5.01,0.00,22.6,22.1,00.0,31.4,24.4,03.8,0000.0,0005.69,0003.40,0003.23
2023-01-30 04:19:00,,0827.0,5.00,0.00,22.6,21.6,00.0,31.4,24.2,03.8,0000.0,0005.64,0003.41,0003.25
2023-01-30 04:20:00,,0827.0,5.02,0.00,22.5,21.2,00.0,31.4,24.1,03.8,0000.0,0005.65,0003.41,0003.24
2023-01-30 04:21:00,,0826.9,5.00,0.00,22.5,20.9,00.0,31.4,24.0,03.8,0000.0,0005.61,0003.39,0003.21
2023-01-30 04:22:00,,0826.9,5.01,0.00,22.4,20.6,00.0,31.3,23.9,03.9,0000.0,0005.58,0003.37,0003.20
2023-01-30 04:23:00,,0827.1,5.01,0.00,22.4,21.2,00.0,31.3,24.1,03.9,0000.0,0005.28,0003.38,0003.18
2023-01-30 04:24:00,,0827.1,5.01,0.00,22.5,22.1,00.0,31.3,24.3,03.9,0000.0,0004.71,0003.37,0003.15
2023-01-30 04:25:00,,0826.9,4.99,0.00,22.6,22.8,00.0,31.3,24.6,03.8,0000.0,0004.59,0003.35,0003.13
2023-01-30 04:26:00,,0826.9,4.99,0.00,22.7,23.0,00.0,31.3,24.7,03.8,0000.0,0004.44,0003.32,0003.11
2023-01-30 04:27:00,,0827.2,4.99,0.00,22.7,22.4,00.0,31.4,24.5,03.8,0000.0,0004.41,0003.30,0003.08
2023-01-30 04:28:00,,0827.0,5.00,0.00,22.7,21.8,00.0,31.4,24.3,03.8,0000.0,0004.45,0003.31,0003.05
2023-01-30 04:29:00,,0827.0,5.00,0.00,22.6,21.4,00.0,31.4,24.2,03.8,0000.0,0004.44,0003.29,0003.00
2023-01-30 04:30:00,,0826.9,5.01,0.00,22.5,21.0,00.0,31.4,24.1,03.8,0000.0,0004.38,0003.27,0002.96
2023-01-30 04:31:00,,0826.9,4.97,0.00,22.5,20.8,00.0,31.4,24.0,03.9,0000.0,0004.17,0003.23,0002.95
2023-01-30 04:32:00,,0826.9,5.01,0.00,22.5,21.1,00.0,31.4,24.1,03.9,0000.0,0004.13,0003.22,0002.95
2023-01-30 04:33:00,,0827.0,4.99,0.00,22.6,22.1,00.0,31.3,24.4,03.9,0000.0,0004.17,0003.23,0002.96
2023-01-30 04:34:00,,0826.9,5.00,0.00,22.7,22.9,00.0,31.3,24.6,03.8,0000.0,0004.18,0003.23,0002.97
2023-01-30 04:35:00,,0827.1,4.98,0.00,22.8,23.1,00.0,31.4,24.7,03.8,0000.0,0004.18,0003.23,0002.99
2023-01-30 04:36:00,,0826.9,4.99,0.00,22.7,22.4,00.0,31.4,24.6,03.8,0000.0,0004.18,0003.23,0003.01
2023-01-30 04:37:00,,0827.1,5.01,0.00,22.7,21.9,00.0,31.4,24.4,03.8,0000.0,0004.14,0003.22,0003.01
2023-01-30 04:38:00,,0826.9,4.98,0.00,22.7,21.4,00.0,31.5,24.3,03.8,0000.0,0004.03,0003.20,0003.01
2023-01-30 04:39:00,,0826.9,5.00,0.00,22.6,21.1,00.0,31.4,24.1,03.8,0000.0,0003.98,0003.19,0003.01
2023-01-30 04:40:00,,0826.9,4.99,0.00,22.5,20.8,00.0,31.4,24.1,03.9,0000.0,0003.96,0003.19,0003.03
2023-01-30 04:41:00,,0827.0,5.01,0.00,22.5,20.7,00.0,31.4,24.0,03.9,0000.0,0004.00,0003.20,0003.03
2023-01-30 04:42:00,,0826.9,5.00,0.00,22.5,21.5,00.0,31.4,24.2,03.9,0000.0,0004.06,0003.21,0003.04
2023-01-30 04:43:00,,0827.2,5.00,0.00,22.6,22.4,00.0,31.4,24.5,03.9,0000.0,0004.10,0003.22,0003.05
2023-01-30 04:44:00,,0827.0,4.98,0.00,22.7,23.1,00.0,31.4,24.7,03.8,0000.0,0004.09,0003.22,0003.05
2023-01-30 04:45:00,,0827.0,4.99,0.00,22.8,22.8,00.0,31.4,24.7,03.8,0000.0,0004.10,0003.22,0003.06
2023-01-30 04:46:00,,0827.0,5.01,0.00,22.8,22.2,00.0,31.5,24.5,03.8,0000.0,0004.16,0003.23,0003.08
2023-01-30 04:47:00,,0827.0,5.00,0.00,22.7,21.7,00.0,31.5,24.4,03.8,0000.0,0004.15,0003.24,0003.09
2023-01-30 04:48:00,,0827.1,5.00,0.00,22.7,21.3,00.0,31.5,24.2,03.8,0000.0,0004.18,0003.25,0003.09
2023-01-30 04:49:00,,0826.8,5.01,0.00,22.6,21.0,00.0,31.5,24.1,03.9,0000.0,0004.16,0003.25,0003.09
2023-01-30 04:50:00,,0826.8,4.99,0.00,22.5,20.7,00.0,31.5,24.0,03.9,0000.0,0004.18,0003.25,0003.08
2023-01-30 04:51:00,,0826.8,5.02,0.00,22.5,20.6,00.0,31.4,24.0,03.9,0000.0,0004.15,0003.24,0003.07
2023-01-30 04:52:00,,0826.9,5.01,0.00,22.5,21.3,00.0,31.4,24.2,03.9,0000.0,0004.27,0003.27,0003.08
2023-01-30 04:53:00,,0826.9,4.98,0.00,22.6,22.1,00.0,31.4,24.4,03.9,0000.0,0004.27,0003.27,0003.07
2023-01-30 04:54:00,,0827.0,4.98,0.00,22.7,22.9,00.0,31.4,24.6,03.8,0000.0,0004.27,0003.26,0003.06
2023-01-30 04:55:00,,0827.0,5.00,0.00,22.7,22.7,00.0,31.4,24.6,03.8,0000.0,0004.34,0003.27,0003.06
2023-01-30 04:56:00,,0826.8,5.01,0.00,22.7,22.1,00.0,31.4,24.5,03.8,0000.0,0004.31,0003.26,0003.06
2023-01-30 04:57:00,,0826.8,5.00,0.00,22.6,21.5,00.0,31.5,24.3,03.8,0000.0,0004.32,0003.25,0003.04
2023-01-30 04:58:00,,0826.8,5.00,0.00,22.5,21.0,00.0,31.4,24.1,03.8,0000.0,0004.40,0003.26,0003.04
2023-01-30 04:59:00,,0826.9,5.00,0.00,22.4,20.6,00.0,31.4,23.9,03.8,0000.0,0004.48,0003.28,0003.06
